Change the Weather History Date:

Saturday, October 27, 2012

  Actual Average (KPIA) Record (KPIA)
Temperature  
Mean Temperature 41 °F 50 °F  
Max Temperature 50 °F 60 °F 86 °F (1927)
Min Temperature 32 °F 40 °F 22 °F (1925)
Degree Days  
Heating Degree Days 24 15  
Month to date heating degree days 295  
Since 1 July heating degree days 385  
Cooling Degree Days 0 0  
Month to date cooling degree days 12  
Year to date cooling degree days 1036  
Moisture  
Dew Point 31 °F    
Average Humidity 68    
Maximum Humidity 90    
Minimum Humidity 43    
Precipitation  
Precipitation 0.00 in 0.10 in 1.47 in (1998)
Month to date precipitation 2.44  
Year to date precipitation 30.54  
Snow  
Snow 0.00 in 0.00 in 0.90 in (1925)
Month to date snowfall 0.0  
Since 1 July snowfall 0.0  
Since 1 September snowfall 0.0  
Snow Depth -    
Sea Level Pressure  
Sea Level Pressure 30.30 in    
Wind  
Wind Speed 6 mph (NNW)    
Max Wind Speed 12 mph    
Max Gust Speed 17 mph    
Visibility 10 miles    
Events      
T = Trace of Precipitation, MM = Missing Value Source: NWS Daily Summary

Daily Weather History Graph

Daily Weather History Graph

Search for Another Location

Airport or City:

Trip Planner

Search our weather history database for the weather conditions in past years. The results will help you decide how hot, cold, wet, or windy it might be!

Date:

Astronomy

Oct. 27, 2012 Rise Set
Actual Time 7:23 AM CDT 5:58 PM CDT
Civil Twilight 6:54 AM CDT 6:27 PM CDT
Nautical Twilight 6:22 AM CDT 6:59 PM CDT
Astronomical Twilight 5:50 AM CDT 7:31 PM CDT
Moon 4:45 PM CDT (10/27) 5:17 AM CDT (10/27)
Length of Visible Light 11h 32m
Length of Day
10h 35m
Waxing Gibbous, 96% of the Moon is Illuminated
Oct 27
Waxing Gibbous
Oct 29
Full
Nov 6
Last Quarter
Nov 13
New
Nov 20
First Quarter

Hourly Weather History & Observations

Time (CDT) Temp. Windchill Dew Point Humidity Pressure Visibility Wind Dir Wind Speed Gust Speed Precip Events Conditions
12:15 AM 40.1 °F 36.1 °F 32.2 °F 73% 30.33 in 10.0 mi NNW 5.8 mph - N/A   Clear
12:35 AM 39.2 °F 33.0 °F 32.0 °F 75% 30.33 in 10.0 mi NNW 9.2 mph - N/A   Clear
12:55 AM 38.7 °F 32.9 °F 32.0 °F 77% 30.32 in 10.0 mi NW 8.1 mph - N/A   Scattered Clouds
1:15 AM 38.5 °F 33.4 °F 32.0 °F 78% 30.32 in 10.0 mi NW 6.9 mph - N/A   Clear
1:35 AM 38.3 °F 32.5 °F 32.0 °F 78% 30.32 in 10.0 mi NW 8.1 mph - N/A   Clear
1:55 AM 37.9 °F 34.4 °F 32.0 °F 79% 30.32 in 10.0 mi NNW 4.6 mph - N/A   Scattered Clouds
2:15 AM 37.6 °F 33.1 °F 31.8 °F 80% 30.32 in 10.0 mi NNW 5.8 mph - N/A   Scattered Clouds
2:35 AM 37.6 °F 31.6 °F 32.0 °F 80% 30.32 in 10.0 mi NW 8.1 mph - N/A   Clear
2:55 AM 37.6 °F 33.1 °F 31.8 °F 80% 30.32 in 10.0 mi NNW 5.8 mph - N/A   Clear
3:15 AM 37.4 °F 32.8 °F 31.6 °F 80% 30.32 in 10.0 mi NNW 5.8 mph - N/A   Clear
3:35 AM 36.7 °F 32.9 °F 31.6 °F 82% 30.31 in 10.0 mi NNW 4.6 mph - N/A   Clear
3:55 AM 36.5 °F 32.7 °F 31.6 °F 83% 30.31 in 10.0 mi NNW 4.6 mph - N/A   Clear
4:15 AM 36.1 °F 31.4 °F 31.5 °F 83% 30.31 in 10.0 mi NNW 5.8 mph - N/A   Clear
4:35 AM 35.8 °F 30.9 °F 31.5 °F 84% 30.31 in 10.0 mi NNW 5.8 mph - N/A   Scattered Clouds
4:55 AM 35.4 °F 31.5 °F 31.5 °F 85% 30.31 in 10.0 mi NNW 4.6 mph - N/A   Clear
5:15 AM 35.1 °F 30.1 °F 31.5 °F 87% 30.31 in 10.0 mi NW 5.8 mph - N/A   Clear
5:35 AM 35.2 °F 30.3 °F 31.6 °F 87% 30.33 in 10.0 mi NW 5.8 mph - N/A   Clear
5:55 AM 34.3 °F 30.2 °F 31.1 °F 88% 30.33 in 10.0 mi NNW 4.6 mph - N/A   Scattered Clouds
6:15 AM 34.2 °F 30.0 °F 31.1 °F 89% 30.33 in 10.0 mi NNW 4.6 mph - N/A   Scattered Clouds
6:55 AM 33.8 °F 29.6 °F 30.7 °F 89% 30.33 in 10.0 mi NNW 4.6 mph - N/A   Clear
7:15 AM 32.7 °F 29.6 °F 30.2 °F 90% 30.32 in 10.0 mi NNW 3.5 mph - N/A   Scattered Clouds
7:35 AM 33.1 °F 28.7 °F 30.0 °F 89% 30.33 in 10.0 mi NNW 4.6 mph - N/A   Scattered Clouds
7:55 AM 34.0 °F 29.8 °F 30.9 °F 89% 30.33 in 10.0 mi NNW 4.6 mph - N/A   Scattered Clouds
8:15 AM 34.9 °F 30.8 °F 31.1 °F 86% 30.34 in 10.0 mi NNW 4.6 mph - N/A   Clear
8:35 AM 36.1 °F 32.3 °F 31.8 °F 84% 30.34 in 10.0 mi NNW 4.6 mph - N/A   Clear
8:55 AM 37.6 °F 32.3 °F 32.0 °F 80% 30.35 in 10.0 mi NNW 6.9 mph - N/A   Clear
9:15 AM 39.2 °F 35.0 °F 32.2 °F 76% 30.36 in 10.0 mi NNW 5.8 mph - N/A   Clear
9:35 AM 40.6 °F 35.4 °F 32.0 °F 71% 30.37 in 10.0 mi NNW 8.1 mph - N/A   Clear
9:55 AM 41.9 °F 36.9 °F 32.0 °F 68% 30.36 in 10.0 mi North 8.1 mph - N/A   Clear
10:15 AM 42.8 °F 39.3 °F 32.0 °F 66% 30.36 in 10.0 mi North 5.8 mph - N/A   Clear
10:35 AM 44.2 °F 39.7 °F 30.9 °F 60% 30.35 in 10.0 mi North 8.1 mph - N/A   Clear
10:55 AM 45.0 °F 40.1 °F 31.3 °F 59% 30.35 in 10.0 mi NNW 9.2 mph - N/A   Clear
11:15 AM 45.9 °F 42.9 °F 30.6 °F 55% 30.34 in 10.0 mi North 5.8 mph - N/A   Clear
11:35 AM 46.2 °F 41.2 °F 30.0 °F 53% 30.33 in 10.0 mi NNW 10.4 mph 16.1 mph N/A   Clear
11:55 AM 46.6 °F - 30.4 °F 53% 30.33 in 10.0 mi North 9.2 mph - N/A   Clear
12:15 PM 47.1 °F - 29.1 °F 50% 30.33 in 10.0 mi NNW 8.1 mph - N/A   Clear
12:35 PM 47.7 °F - 29.3 °F 49% 30.31 in 10.0 mi North 6.9 mph 17.3 mph N/A   Clear
12:55 PM 47.8 °F - 28.9 °F 48% 30.31 in 10.0 mi North 11.5 mph - N/A   Clear
1:15 PM 48.6 °F - 29.8 °F 48% 30.30 in 10.0 mi NNW 10.4 mph - N/A   Clear
1:35 PM 48.7 °F - 29.1 °F 47% 30.29 in 10.0 mi NNW 5.8 mph 17.3 mph N/A   Clear
1:55 PM 49.6 °F - 28.9 °F 45% 30.28 in 10.0 mi North 8.1 mph - N/A   Clear
2:15 PM 49.5 °F - 28.9 °F 45% 30.27 in 10.0 mi NW 6.9 mph 17.3 mph N/A   Clear
2:35 PM 50.4 °F - 28.9 °F 44% 30.26 in 10.0 mi North 8.1 mph - N/A   Clear
2:55 PM 49.5 °F - 28.2 °F 44% 30.26 in 10.0 mi North 8.1 mph - N/A   Clear
3:15 PM 50.4 °F - 28.8 °F 43% 30.26 in 10.0 mi NNW 8.1 mph - N/A   Clear
3:35 PM 48.7 °F - 28.8 °F 46% 30.26 in 10.0 mi NW 8.1 mph - N/A   Clear
3:55 PM 48.4 °F - 28.9 °F 47% 30.26 in 10.0 mi NNW 6.9 mph - N/A   Clear
4:15 PM 48.2 °F - 28.4 °F 46% 30.26 in 10.0 mi NW 11.5 mph - N/A   Clear
4:35 PM 48.2 °F - 30.0 °F 49% 30.26 in 10.0 mi NNW 6.9 mph - N/A   Clear
4:55 PM 47.8 °F - 29.8 °F 50% 30.26 in 10.0 mi NNW 6.9 mph - N/A   Clear
5:15 PM 48.0 °F - 30.2 °F 50% 30.26 in 10.0 mi NNW 4.6 mph - N/A   Clear
5:35 PM 46.6 °F - 30.7 °F 54% 30.26 in 10.0 mi NW 9.2 mph - N/A   Clear
5:55 PM 45.7 °F 42.0 °F 31.1 °F 57% 30.27 in 10.0 mi NNW 6.9 mph - N/A   Clear
6:15 PM 45.1 °F 42.0 °F 31.1 °F 58% 30.27 in 10.0 mi NNW 5.8 mph - N/A   Clear
6:35 PM 44.2 °F 42.7 °F 31.8 °F 62% 30.28 in 10.0 mi NNW 3.5 mph - N/A   Clear
6:55 PM 43.9 °F 41.3 °F 31.6 °F 62% 30.28 in 10.0 mi NNW 4.6 mph - N/A   Clear
7:15 PM 42.1 °F - 31.8 °F 67% 30.28 in 10.0 mi Calm Calm - N/A   Clear
7:35 PM 42.1 °F 40.2 °F 31.5 °F 66% 30.28 in 10.0 mi North 3.5 mph - N/A   Clear
7:55 PM 41.2 °F - 32.0 °F 70% 30.27 in 10.0 mi Calm Calm - N/A   Clear
8:15 PM 41.2 °F 38.2 °F 32.0 °F 70% 30.27 in 10.0 mi North 4.6 mph - N/A   Clear
8:35 PM 41.7 °F - 32.4 °F 69% 30.28 in 10.0 mi Calm Calm - N/A   Clear
8:55 PM 40.8 °F 38.8 °F 32.9 °F 73% 30.27 in 10.0 mi NNW 3.5 mph - N/A   Clear
9:15 PM 39.7 °F 37.6 °F 32.4 °F 75% 30.28 in 10.0 mi North 3.5 mph - N/A   Clear
9:35 PM 37.0 °F 34.5 °F 31.6 °F 81% 30.28 in 10.0 mi NNW 3.5 mph - N/A   Clear
9:55 PM 39.6 °F 37.4 °F 32.0 °F 74% 30.28 in 10.0 mi NNW 3.5 mph - N/A   Scattered Clouds
10:15 PM 39.2 °F 37.0 °F 32.0 °F 75% 30.28 in 10.0 mi NNW 3.5 mph - N/A   Clear
10:35 PM 39.2 °F 37.0 °F 32.0 °F 75% 30.28 in 10.0 mi NNW 3.5 mph - N/A   Clear
10:55 PM 39.2 °F - 32.0 °F 75% 30.29 in 10.0 mi Calm Calm - N/A   Clear
11:35 PM 37.9 °F - 32.0 °F 79% 30.29 in 10.0 mi Calm Calm - N/A   Scattered Clouds
11:55 PM 38.5 °F - 32.0 °F 78% 30.30 in 10.0 mi Calm Calm - N/A   Scattered Clouds